| time (UTC) | temp F | wind direction | speed knots | gust knots | rain 1hr in | rain 24hr in | rain mn in | humidity % | barometer mb |
| 20260503033237 | 41 | 269 | 0.0 | 0.0 | 157.50 | 0.00 | 0.00 | 79 | 1018.1 |
| 20260503032737 | 42 | 269 | 0.0 | 0.0 | 157.50 | 0.00 | 0.00 | 79 | 1018.2 |
| 20260503032237 | 42 | 269 | 0.0 | 0.0 | 157.50 | 0.00 | 0.00 | 79 | 1018.2 |
| 20260503031237 | 42 | 269 | 0.0 | 0.0 | 157.50 | 0.00 | 0.00 | 78 | 1018.3 |
| 20260503030737 | 42 | 269 | 0.0 | 0.0 | 157.50 | 0.00 | 0.00 | 78 | 1018.3 |
| 20260503030237 | 42 | 269 | 0.0 | 0.0 | 157.50 | 0.00 | 0.00 | 78 | 1018.3 |
| 20260503025737 | 42 | 269 | 0.0 | 0.0 | 157.50 | 0.00 | 0.00 | 78 | 1018.4 |
| 20260503025237 | 42 | 269 | 0.0 | 0.0 | 157.50 | 0.00 | 0.00 | 78 | 1018.3 |
| 20260503024737 | 42 | 269 | 0.0 | 0.0 | 157.50 | 0.00 | 0.00 | 78 | 1018.3 |
| 20260503024237 | 42 | 269 | 0.0 | 0.0 | 157.50 | 0.00 | 0.00 | 77 | 1018.4 |
| 20260503023737 | 42 | 269 | 0.0 | 0.0 | 157.50 | 0.00 | 0.00 | 77 | 1018.4 |
| 20260503023236 | 42 | 269 | 0.0 | 0.0 | 157.50 | 0.00 | 0.00 | 76 | 1018.5 |
| 20260503022737 | 42 | 269 | 0.0 | 0.0 | 157.50 | 0.00 | 0.00 | 76 | 1018.4 |
| 20260503022236 | 42 | 269 | 0.0 | 0.0 | 157.50 | 0.00 | 0.00 | 75 | 1018.4 |
| 20260503021737 | 42 | 269 | 0.0 | 0.0 | 157.50 | 0.00 | 0.00 | 75 | 1018.5 |
| 20260503021237 | 42 | 269 | 0.0 | 0.0 | 157.50 | 0.00 | 0.00 | 74 | 1018.5 |
| 20260503020236 | 43 | 269 | 0.0 | 0.0 | 157.50 | 0.00 | 0.00 | 72 | 1018.4 |
| 20260503015737 | 43 | 269 | 0.0 | 0.0 | 157.50 | 0.00 | 0.00 | 71 | 1018.4 |
| 20260503015236 | 43 | 269 | 0.0 | 0.0 | 157.50 | 0.00 | 0.00 | 71 | 1018.3 |
| 20260503014736 | 43 | 269 | 0.0 | 0.0 | 157.50 | 0.00 | 0.00 | 71 | 1018.3 |
| 20260503014237 | 44 | 269 | 0.0 | 0.0 | 157.50 | 0.00 | 0.00 | 70 | 1018.3 |
| 20260503013736 | 44 | 269 | 0.0 | 0.0 | 157.50 | 0.00 | 0.00 | 69 | 1018.3 |
| 20260503012737 | 45 | 269 | 0.0 | 0.0 | 157.50 | 0.00 | 0.00 | 68 | 1018.1 |
| 20260503012236 | 45 | 269 | 0.0 | 0.0 | 157.50 | 0.00 | 0.00 | 66 | 1018.1 |
| 20260503011738 | 45 | 269 | 0.0 | 0.0 | 157.50 | 0.00 | 0.00 | 66 | 1018.1 |
| 20260503011237 | 45 | 269 | 0.0 | 0.0 | 157.50 | 0.00 | 0.00 | 66 | 1018.1 |
| 20260503010736 | 46 | 269 | 0.0 | 0.0 | 157.50 | 0.00 | 0.00 | 66 | 1018.1 |
| 20260503010236 | 46 | 269 | 0.0 | 0.0 | 157.50 | 0.00 | 0.00 | 66 | 1018.1 |
| 20260503005236 | 46 | 269 | 0.0 | 0.0 | 157.50 | 0.00 | 0.00 | 63 | 1018.1 |
| 20260503004736 | 46 | 269 | 0.0 | 0.0 | 157.50 | 0.00 | 0.00 | 63 | 1018.0 |
| 20260503004237 | 46 | 269 | 0.0 | 0.0 | 157.50 | 0.00 | 0.00 | 61 | 1018.0 |
| 20260503003236 | 47 | 269 | 0.0 | 0.0 | 157.50 | 0.00 | 0.00 | 60 | 1018.0 |
| 20260503002737 | 47 | 269 | 0.0 | 0.0 | 157.50 | 0.00 | 0.00 | 58 | 1017.9 |
| 20260503002236 | 47 | 269 | 0.0 | 0.0 | 157.50 | 0.00 | 0.00 | 57 | 1018.0 |
| 20260503001736 | 47 | 269 | 0.0 | 0.0 | 157.50 | 0.00 | 0.00 | 57 | 1017.9 |
| 20260503001237 | 47 | 269 | 0.9 | 0.0 | 157.50 | 0.00 | 0.00 | 57 | 1017.8 |
| 20260503000736 | 47 | 0 | 0.0 | 0.0 | 157.50 | 0.00 | 0.00 | 57 | 1017.8 |
| 20260503000236 | 47 | 314 | 0.0 | 0.0 | 157.50 | 0.00 | 0.00 | 57 | 1017.8 |
| 20260502235737 | 47 | 318 | 0.0 | 0.0 | 157.50 | 0.00 | 0.00 | 57 | 1017.9 |
| 20260502235238 | 47 | 312 | 0.0 | 0.0 | 157.50 | 0.00 | 0.00 | 57 | 1017.8 |
| 20260502234737 | 47 | 298 | 0.0 | 0.0 | 157.50 | 0.00 | 0.00 | 56 | 1017.8 |
| 20260502234237 | 47 | 305 | 0.0 | 0.0 | 157.50 | 0.00 | 0.00 | 55 | 1017.8 |
| 20260502233738 | 47 | 304 | 0.9 | 0.0 | 157.50 | 0.00 | 0.00 | 55 | 1017.7 |
| 20260502233236 | 47 | 263 | 1.7 | 0.0 | 157.50 | 0.00 | 0.00 | 55 | 1017.7 |
| 20260502232236 | 47 | 46 | 0.9 | 0.0 | 157.50 | 0.00 | 0.00 | 54 | 1017.7 |
| 20260502231237 | 47 | 338 | 1.7 | 0.0 | 157.50 | 0.00 | 0.00 | 54 | 1017.7 |
| 20260502230237 | 48 | 330 | 2.6 | 0.0 | 157.50 | 0.00 | 0.00 | 53 | 1017.8 |
| 20260502225236 | 48 | 7 | 3.5 | 0.0 | 157.50 | 0.00 | 0.00 | 54 | 1017.7 |
| 20260502224736 | 48 | 11 | 0.0 | 0.0 | 157.50 | 0.00 | 0.00 | 54 | 1017.7 |
| 20260502224237 | 48 | 319 | 2.6 | 0.0 | 157.50 | 0.00 | 0.00 | 53 | 1017.7 |
| 20260502223736 | 48 | 323 | 0.9 | 0.0 | 157.50 | 0.00 | 0.00 | 52 | 1017.7 |
| 20260502223236 | 48 | 14 | 2.6 | 0.0 | 157.50 | 0.00 | 0.00 | 52 | 1017.7 |
| 20260502222737 | 48 | 204 | 0.9 | 0.0 | 157.50 | 0.00 | 0.00 | 52 | 1017.6 |
| 20260502222239 | 48 | 339 | 5.2 | 0.0 | 157.50 | 0.00 | 0.00 | 53 | 1017.6 |
| 20260502221736 | 48 | 340 | 3.5 | 0.0 | 157.50 | 0.00 | 0.00 | 51 | 1017.6 |
| 20260502221237 | 48 | 301 | 2.6 | 0.0 | 157.50 | 0.00 | 0.00 | 50 | 1017.6 |
| 20260502220736 | 48 | 346 | 0.0 | 0.0 | 157.50 | 0.00 | 0.00 | 51 | 1017.6 |
| 20260502215736 | 48 | 349 | 3.5 | 0.0 | 157.50 | 0.00 | 0.00 | 50 | 1017.6 |
| 20260502215236 | 48 | 34 | 0.9 | 0.0 | 157.50 | 0.00 | 0.00 | 50 | 1017.6 |
| 20260502214736 | 48 | 339 | 3.5 | 0.0 | 157.50 | 0.00 | 0.00 | 50 | 1017.6 |
| 20260502214236 | 48 | 14 | 0.0 | 0.0 | 157.50 | 0.00 | 0.00 | 50 | 1017.6 |
| 20260502213736 | 49 | 359 | 6.1 | 0.0 | 157.50 | 0.00 | 0.00 | 50 | 1017.5 |
| 20260502213236 | 49 | 14 | 2.6 | 0.0 | 157.50 | 0.00 | 0.00 | 49 | 1017.5 |
| 20260502212736 | 49 | 329 | 4.3 | 0.0 | 157.50 | 0.00 | 0.00 | 48 | 1017.5 |
| 20260502212236 | 49 | 278 | 6.1 | 0.0 | 157.50 | 0.00 | 0.00 | 50 | 1017.4 |
| 20260502211736 | 49 | 17 | 7.0 | 0.0 | 157.50 | 0.00 | 0.00 | 50 | 1017.4 |
| 20260502211543 | 49 | 308 | 3.5 | 0.0 | 157.50 | 0.00 | 0.00 | 48 | 1017.4 |
| 20260502211236 | 49 | 308 | 3.5 | 0.0 | 157.50 | 0.00 | 0.00 | 48 | 1017.4 |
| 20260502210736 | 49 | 281 | 7.8 | 0.0 | 157.50 | 0.00 | 0.00 | 48 | 1017.3 |
| 20260502210236 | 49 | 332 | 3.5 | 0.0 | 157.50 | 0.00 | 0.00 | 49 | 1017.4 |
| 20260502205236 | 49 | 288 | 4.3 | 0.0 | 157.50 | 0.00 | 0.00 | 48 | 1017.3 |
| 20260502204738 | 49 | 6 | 3.5 | 0.0 | 157.50 | 0.00 | 0.00 | 46 | 1017.3 |
| 20260502204236 | 49 | 76 | 6.1 | 0.0 | 157.50 | 0.00 | 0.00 | 46 | 1017.5 |
| 20260502203736 | 50 | 343 | 8.7 | 0.0 | 157.50 | 0.00 | 0.00 | 48 | 1017.3 |
| 20260502203237 | 50 | 340 | 3.5 | 0.0 | 157.50 | 0.00 | 0.00 | 49 | 1017.4 |
| 20260502202737 | 50 | 359 | 2.6 | 0.0 | 157.50 | 0.00 | 0.00 | 47 | 1017.4 |
| 20260502202236 | 50 | 359 | 3.5 | 0.0 | 157.50 | 0.00 | 0.00 | 47 | 1017.3 |
| 20260502201736 | 50 | 6 | 5.2 | 0.0 | 157.50 | 0.00 | 0.00 | 49 | 1017.4 |
| 20260502201237 | 49 | 304 | 5.2 | 0.0 | 157.50 | 0.00 | 0.00 | 48 | 1017.4 |
| 20260502200736 | 49 | 290 | 3.5 | 0.0 | 157.50 | 0.00 | 0.00 | 49 | 1017.4 |
| 20260502200236 | 49 | 352 | 4.3 | 0.0 | 157.50 | 0.00 | 0.00 | 49 | 1017.5 |
| 20260502195236 | 50 | 285 | 1.7 | 0.0 | 157.50 | 0.00 | 0.00 | 48 | 1017.6 |
| 20260502194736 | 50 | 262 | 1.7 | 0.0 | 157.50 | 0.00 | 0.00 | 48 | 1017.6 |
| 20260502194236 | 49 | 308 | 4.3 | 0.0 | 157.50 | 0.00 | 0.00 | 49 | 1017.7 |
| 20260502193236 | 49 | 269 | 7.0 | 0.0 | 157.50 | 0.00 | 0.00 | 47 | 1017.7 |
| 20260502192736 | 49 | 319 | 5.2 | 0.0 | 157.50 | 0.00 | 0.00 | 49 | 1017.8 |
| 20260502192236 | 49 | 345 | 5.2 | 0.0 | 157.50 | 0.00 | 0.00 | 49 | 1017.8 |
| 20260502191736 | 50 | 3 | 5.2 | 0.0 | 157.50 | 0.00 | 0.00 | 48 | 1017.8 |
| 20260502191236 | 50 | 319 | 3.5 | 0.0 | 157.50 | 0.00 | 0.00 | 48 | 1017.8 |
| 20260502190737 | 50 | 3 | 6.1 | 0.0 | 157.50 | 0.00 | 0.00 | 49 | 1017.9 |
| 20260502190236 | 50 | 305 | 3.5 | 0.0 | 157.50 | 0.00 | 0.00 | 50 | 1017.8 |
| 20260502185736 | 50 | 169 | 1.7 | 0.0 | 157.50 | 0.00 | 0.00 | 47 | 1017.8 |
| 20260502185236 | 50 | 338 | 5.2 | 0.0 | 157.50 | 0.00 | 0.00 | 46 | 1017.9 |
| 20260502184910 | 50 | 319 | 5.2 | 0.0 | 157.50 | 0.00 | 0.00 | 47 | 1017.9 |
| 20260502184736 | 50 | 319 | 5.2 | 0.0 | 157.50 | 0.00 | 0.00 | 47 | 1017.9 |
| 20260502183736 | 50 | 338 | 4.3 | 0.0 | 157.50 | 0.00 | 0.00 | 50 | 1017.9 |
| 20260502183236 | 49 | 284 | 1.7 | 0.0 | 157.50 | 0.00 | 0.00 | 47 | 1017.9 |
| 20260502182736 | 50 | 1 | 3.5 | 0.0 | 157.50 | 0.00 | 0.00 | 49 | 1017.9 |
| 20260502181737 | 49 | 311 | 1.7 | 0.0 | 157.50 | 0.00 | 0.00 | 53 | 1017.9 |
| 20260502181236 | 49 | 37 | 6.1 | 0.0 | 157.50 | 0.00 | 0.00 | 50 | 1017.9 |
| 20260502180236 | 49 | 359 | 7.0 | 0.0 | 157.50 | 0.00 | 0.00 | 54 | 1018.0 |
| 20260502170236 | 48 | 288 | 3.5 | 0.0 | 157.50 | 0.00 | 0.00 | 53 | 1018.3 |
| 20260502163737 | 47 | 297 | 2.6 | 0.0 | 157.50 | 0.00 | 0.00 | 54 | 1018.3 |
| 20260502163236 | 47 | 305 | 5.2 | 0.0 | 157.50 | 0.00 | 0.00 | 56 | 1018.4 |
| 20260502162736 | 47 | 359 | 9.6 | 0.0 | 157.50 | 0.00 | 0.00 | 57 | 1018.4 |
| 20260502162238 | 47 | 145 | 1.7 | 0.0 | 157.50 | 0.00 | 0.00 | 54 | 1018.4 |
| 20260502161739 | 47 | 15 | 3.5 | 0.0 | 157.50 | 0.00 | 0.00 | 59 | 1018.5 |
| 20260502161236 | 47 | 8 | 5.2 | 0.0 | 157.50 | 0.00 | 0.00 | 59 | 1018.5 |
| 20260502160736 | 47 | 6 | 1.7 | 0.0 | 157.50 | 0.00 | 0.00 | 57 | 1018.4 |
| 20260502160236 | 47 | 329 | 6.1 | 0.0 | 157.50 | 0.00 | 0.00 | 58 | 1018.4 |
| 20260502152236 | 45 | 11 | 7.0 | 0.0 | 157.50 | 0.00 | 0.00 | 60 | 1018.4 |
| 20260502151736 | 45 | 13 | 7.8 | 0.0 | 157.50 | 0.00 | 0.00 | 60 | 1018.3 |
| 20260502151236 | 46 | 336 | 7.8 | 0.0 | 157.50 | 0.00 | 0.00 | 65 | 1018.2 |
| 20260502150736 | 45 | 60 | 7.0 | 0.0 | 157.50 | 0.00 | 0.00 | 64 | 1018.3 |
| 20260502150236 | 45 | 75 | 4.3 | 0.0 | 157.50 | 0.00 | 0.00 | 62 | 1018.3 |
| 20260502130736 | 40 | 37 | 4.3 | 0.0 | 157.50 | 0.00 | 0.00 | 78 | 1018.1 |
| 20260502130235 | 40 | 359 | 3.5 | 0.0 | 157.50 | 0.00 | 0.00 | 79 | 1018.0 |
| 20260502123737 | 39 | 308 | 2.6 | 0.0 | 157.50 | 0.00 | 0.00 | 79 | 1018.0 |
| 20260502123235 | 39 | 304 | 4.3 | 0.0 | 157.50 | 0.00 | 0.00 | 79 | 1018.0 |
| 20260502122736 | 38 | 321 | 5.2 | 0.0 | 157.50 | 0.00 | 0.00 | 80 | 1017.9 |
| 20260502122235 | 38 | 293 | 4.3 | 0.0 | 157.50 | 0.00 | 0.00 | 80 | 1017.8 |
| 20260502121736 | 38 | 295 | 0.9 | 0.0 | 157.50 | 0.00 | 0.00 | 80 | 1017.7 |
| 20260502121238 | 38 | 338 | 0.9 | 0.0 | 157.50 | 0.00 | 0.00 | 81 | 1017.7 |
| 20260502120735 | 37 | 11 | 2.6 | 0.0 | 157.50 | 0.00 | 0.00 | 81 | 1017.7 |
| 20260502120237 | 37 | 31 | 1.7 | 0.0 | 157.50 | 0.00 | 0.00 | 82 | 1017.6 |
| 20260502115736 | 37 | 343 | 0.9 | 0.0 | 157.50 | 0.00 | 0.00 | 82 | 1017.5 |
| 20260502115235 | 37 | 326 | 3.5 | 0.0 | 157.50 | 0.00 | 0.00 | 83 | 1017.5 |
| 20260502114735 | 36 | 359 | 0.9 | 0.0 | 157.50 | 0.00 | 0.00 | 84 | 1017.5 |
| 20260502114237 | 36 | 271 | 0.0 | 0.0 | 157.50 | 0.00 | 0.00 | 84 | 1017.5 |
| 20260502113236 | 36 | 307 | 0.9 | 0.0 | 157.50 | 0.00 | 0.00 | 85 | 1017.4 |
| 20260502112737 | 36 | 343 | 0.0 | 0.0 | 157.50 | 0.00 | 0.00 | 85 | 1017.4 |
| 20260502112235 | 35 | 326 | 0.9 | 0.0 | 157.50 | 0.00 | 0.00 | 86 | 1017.4 |
| 20260502111737 | 35 | 301 | 1.7 | 0.0 | 157.50 | 0.00 | 0.00 | 86 | 1017.4 |
| 20260502110735 | 35 | 281 | 1.7 | 0.0 | 157.50 | 0.00 | 0.00 | 86 | 1017.4 |
| 20260502110235 | 35 | 264 | 0.0 | 0.0 | 157.50 | 0.00 | 0.00 | 86 | 1017.4 |
| 20260502105736 | 35 | 264 | 0.0 | 0.0 | 157.50 | 0.00 | 0.00 | 86 | 1017.3 |
| 20260502105235 | 35 | 264 | 0.0 | 0.0 | 157.50 | 0.00 | 0.00 | 86 | 1017.4 |
| 20260502104735 | 35 | 264 | 0.0 | 0.0 | 157.50 | 0.00 | 0.00 | 86 | 1017.4 |
| 20260502104237 | 35 | 264 | 0.0 | 0.0 | 157.50 | 0.00 | 0.00 | 86 | 1017.3 |
| 20260502102738 | 36 | 264 | 0.0 | 0.0 | 157.50 | 0.00 | 0.00 | 85 | 1017.2 |
| 20260502102235 | 36 | 264 | 0.0 | 0.0 | 157.50 | 0.00 | 0.00 | 85 | 1017.2 |
| 20260502101238 | 36 | 240 | 0.0 | 0.0 | 157.50 | 0.00 | 0.00 | 86 | 1017.2 |
| 20260502100238 | 36 | 280 | 0.0 | 0.0 | 157.50 | 0.00 | 0.00 | 86 | 1017.3 |
| 20260502091235 | 36 | 285 | 0.0 | 0.0 | 157.50 | 0.00 | 0.00 | 87 | 1017.2 |
| 20260502090735 | 36 | 263 | 0.0 | 0.0 | 157.50 | 0.00 | 0.00 | 86 | 1017.1 |
| 20260502090235 | 36 | 263 | 0.0 | 0.0 | 157.50 | 0.00 | 0.00 | 86 | 1017.2 |
| 20260502071235 | 38 | 250 | 0.0 | 0.0 | 157.50 | 0.00 | 0.00 | 86 | 1017.0 |
| 20260502070735 | 38 | 248 | 0.0 | 0.0 | 157.50 | 0.00 | 0.00 | 86 | 1017.0 |
| 20260502070235 | 38 | 266 | 0.9 | 0.0 | 157.50 | 0.00 | 0.00 | 86 | 1017.0 |
| 20260502065235 | 38 | 183 | 0.0 | 0.0 | 157.50 | 0.00 | 0.00 | 86 | 1017.2 |
| 20260502064735 | 38 | 333 | 0.9 | 0.0 | 157.50 | 0.00 | 0.00 | 86 | 1017.2 |
| 20260502064235 | 38 | 207 | 0.0 | 0.0 | 157.50 | 0.00 | 0.00 | 87 | 1017.2 |
| 20260502063236 | 38 | 207 | 0.0 | 0.0 | 157.50 | 0.00 | 0.00 | 87 | 1017.2 |
| 20260502062735 | 39 | 207 | 0.0 | 0.0 | 157.50 | 0.00 | 0.00 | 87 | 1017.2 |
| 20260502061735 | 39 | 207 | 0.0 | 0.0 | 157.50 | 0.00 | 0.00 | 88 | 1017.2 |
| 20260502061236 | 39 | 207 | 0.0 | 0.0 | 157.50 | 0.00 | 0.00 | 88 | 1017.1 |
| 20260502060735 | 39 | 207 | 0.0 | 0.0 | 157.50 | 0.00 | 0.00 | 88 | 1017.2 |
| 20260502060235 | 39 | 207 | 0.0 | 0.0 | 157.50 | 0.00 | 0.00 | 88 | 1017.1 |
| 20260502055737 | 39 | 207 | 0.0 | 0.0 | 157.50 | 0.00 | 0.00 | 88 | 1017.2 |
| 20260502055235 | 39 | 207 | 0.0 | 0.0 | 157.50 | 0.00 | 0.00 | 88 | 1017.3 |
| 20260502054735 | 39 | 207 | 0.0 | 0.0 | 157.50 | 0.00 | 0.00 | 88 | 1017.4 |
| 20260502054235 | 39 | 207 | 0.0 | 0.0 | 157.50 | 0.00 | 0.00 | 88 | 1017.4 |
| 20260502053735 | 39 | 207 | 0.0 | 0.0 | 157.50 | 0.00 | 0.00 | 87 | 1017.5 |
| 20260502053235 | 39 | 207 | 0.0 | 0.0 | 157.50 | 0.00 | 0.00 | 87 | 1017.5 |
| 20260502052735 | 39 | 207 | 0.0 | 0.0 | 157.50 | 0.00 | 0.00 | 87 | 1017.5 |
| 20260502052235 | 39 | 207 | 0.0 | 0.0 | 157.50 | 0.00 | 0.00 | 87 | 1017.4 |
| 20260502051735 | 39 | 207 | 0.0 | 0.0 | 157.50 | 0.00 | 0.00 | 87 | 1017.4 |
| 20260502051235 | 39 | 207 | 0.0 | 0.0 | 157.50 | 0.00 | 0.00 | 87 | 1017.4 |
| 20260502050735 | 40 | 207 | 0.0 | 0.0 | 157.50 | 0.00 | 0.00 | 87 | 1017.4 |
| 20260502050235 | 40 | 207 | 0.0 | 0.0 | 157.50 | 0.00 | 0.00 | 87 | 1017.5 |
| 20260502045736 | 40 | 207 | 0.0 | 0.0 | 157.50 | 0.00 | 0.00 | 87 | 1017.6 |
| 20260502045235 | 40 | 207 | 0.0 | 0.0 | 157.50 | 0.00 | 0.00 | 87 | 1017.6 |
| 20260502044735 | 40 | 207 | 0.0 | 0.0 | 157.50 | 0.00 | 0.00 | 86 | 1017.5 |
| 20260502043735 | 40 | 207 | 0.0 | 0.0 | 157.50 | 0.00 | 0.00 | 86 | 1017.5 |
| 20260502042735 | 41 | 207 | 0.0 | 0.0 | 157.50 | 0.00 | 0.03 | 86 | 1017.5 |
| 20260502042235 | 41 | 207 | 0.0 | 0.0 | 157.50 | 0.00 | 0.03 | 86 | 1017.4 |
| 20260502041735 | 41 | 207 | 0.0 | 0.0 | 157.50 | 0.00 | 0.03 | 86 | 1017.5 |
| 20260502041235 | 41 | 207 | 0.0 | 0.0 | 157.50 | 0.00 | 0.03 | 86 | 1017.5 |
| 20260502040735 | 41 | 207 | 0.0 | 0.0 | 157.50 | 0.00 | 0.03 | 86 | 1017.5 |
| 20260502040235 | 41 | 207 | 0.0 | 0.0 | 157.50 | 0.00 | 0.03 | 86 | 1017.5 |
| 20260502035736 | 41 | 207 | 0.0 | 0.0 | 157.50 | 0.00 | 0.03 | 85 | 1017.5 |
| 20260502035235 | 41 | 207 | 0.0 | 0.0 | 157.50 | 0.00 | 0.03 | 85 | 1017.4 |
| 20260502034735 | 41 | 207 | 0.0 | 0.0 | 157.50 | 0.00 | 0.03 | 85 | 1017.4 |
| 20260502034235 | 42 | 207 | 0.0 | 0.0 | 157.50 | 0.00 | 0.03 | 85 | 1017.4 |
| 20260502033735 | 42 | 207 | 0.0 | 0.0 | 157.50 | 0.00 | 0.03 | 85 | 1017.4 |